Location: Narragansett
(41.4496°N, 71.4488°W)
Time: 18:45:34
(UTC+00:00)

Nauka - Pass Details

Date: 24 September 2021
Orbit: 417 x 423 km, 51.6° (Epoch: 26 October)

Event Time Altitude Azimuth Distance (km) Brightness Sun altitude
Rises 00:19:46 0° 293° (WNW) 2,363 ? -19.1°
Reaches altitude 10° 00:22:33 10° 318° (NW) 1,501 ? -19.6°
Maximum altitude 00:24:34 15° 355° (N) 1,238 ? -20.0°
Enters shadow 00:25:48 13° 19° (NNE) 1,342 ? -20.2°
